Location: Unspecified
(0.0000°N, 0.0000°E)
Time: 19:46:25
(UTC+00:00)

Envisat - Pass Details

Date: 26 June 2017
Orbit: 764 x 766 km, 98.2° (Epoch: 17 December)

Event Time Altitude Azimuth Distance (km) Brightness Sun altitude
Exits shadow 20:27:23 26° 357° (N) 1,475 4.7 -32.7°
Drops below altitude 10° 20:29:32 10° 353° (N) 2,293 5.8 -33.2°
Sets 20:31:50 0° 352° (N) 3,217 6.7 -33.7°
